Find Starlink 33678

NORAD ID: 63509 Int'l Des: 2025-071 Owner: SPXS Country: US Constellation: starlink operational
LEOCIRCULAR

实时位置

正在加载3D地球...

关于 Starlink 33678

正在加载描述...

即将过境

Passes for default location (London). Set your location on the main map for personalized predictions.

高度历史

Loading altitude history...

两行轨道根数

1 63509U 25071S 26124.61953206 .00025492 00000-0 83018-3 0 9990
2 63509 53.1594 240.0511 0000998 73.0754 287.0356 15.31709635 61061
Epoch: May 4, 2026 • Age: 15 hours

当前状态

高度 485.3 km
速度 7.62 km/s
星下点 -42.51°S, 123.34°W
发射日期 Apr 7, 2025
运行时间 1 years
类型 internet

技术详情

分类 Payload
质量 575.00 kg
干质量 530.00 kg
总质量 575.00 kg
长度 0.30 m
直径 4.10 m
跨度 29.00 m
形状 Box + pan
制造商 SPXS
平台类型 Starlink V2MO
阶段状态 In Orbit
所有者/国家 SPXS/US

Most Searched